Regional Weather Roundup
Issued by NWS Glasgow, MT

Home | Current Version | Previous Version | Text Only | Print | Product List | Glossary On
Versions: 1 2 3 4 5 6 7 8 9 10 11 12 13 14 15 16 17 18 19 20 21 22 23 24 25 26 27 28 29 30 31 32 33 34 35 36 37 38 39 40 41 42 43 44 45 46 47 48 49 50
000
ASUS45 KGGW 041715
RWRGGW
HOURLY WEATHER ROUNDUP FOR NORTHEAST MONTANA
NATIONAL WEATHER SERVICE GLASGOW MONTANA
1000 AM MST WED MAR 04 2015

NOTE: "FAIR" INDICATES FEW OR NO CLOUDS BELOW 12,000 FEET WITH NO
SIGNIFICANT WEATHER AND/OR OBSTRUCTIONS TO VISISBILITY.

NORTHEAST MONTANA


CITY           SKY/WX    TMP DP  RH WIND       PRES   REMARKS
GLASGOW        SUNNY      4  -9  55 NW7       30.29S
PLENTYWOOD       N/A     -5 -15  62 NW7         N/A
WOLF POINT     SUNNY      6  -9  50 NW14      30.34R WCI -11
JORDAN           N/A     11  -2  56 NW10      30.25S WCI  -3
WINNETT          N/A     19  -5  34 W3          N/A
SIDNEY         SUNNY      1 -11  55 NW12      30.37R WCI -15
GLENDIVE       MOSUNNY    3  -8  60 NW8       30.29S
MALTA            N/A     12   0  58 NE1         N/A
SCOBEY           N/A     -5 -18  53 W10       30.24R WCI -22

FORT PECK REPORTS


CITY           SKY/WX    TMP DP  RH WIND       PRES   REMARKS
FORT PECK        N/A      7  -4  60 W5          N/A
THE PINES        N/A      7  -4  60 S3          N/A

SOUTHEAST MONTANA


CITY           SKY/WX    TMP DP  RH WIND       PRES   REMARKS
BILLINGS       MOSUNNY   12  -2  53 SW10      30.20S WCI  -1
MILES CITY     PTSUNNY    9  -3  58 NW8       30.29R
BAKER          PTSUNNY    5  -7  57 NW17      30.24R WCI -14
LIVINGSTON     CLOUDY    16   3  56 NW10G24   30.13S

CENTRAL MONTANA


CITY           SKY/WX    TMP DP  RH WIND       PRES   REMARKS
HAVRE          SUNNY     18   2  49 SW10      30.20F
LEWISTOWN      SUNNY     12  -3  51 CALM      30.12S
GREAT FALLS    SUNNY     19   7  59 SW12      30.12F
CUT BANK       SUNNY     16   5  62 SE5       30.08S
HELENA         SUNNY     14   3  61 VRB3      30.20S
BUTTE          SUNNY     12   4  70 CALM      30.12S
BOZEMAN        SUNNY     12   2  64 SE3       30.19S

WESTERN MONTANA


CITY           SKY/WX    TMP DP  RH WIND       PRES   REMARKS
MISSOULA       SUNNY     20  13  74 CALM      30.28S
KALISPELL      NOT AVBL

NORTH DAKOTA


CITY           SKY/WX    TMP DP  RH WIND       PRES   REMARKS
WILLISTON        N/A    N/A N/A N/A MISG      30.36R
DICKINSON      CLOUDY     1 -10  60 NW18G29   30.23R WCI -20
MINOT          SUNNY     -6 -17  59 W20       30.31R WCI -30
BISMARCK       PTSUNNY   -1 -15  51 NW20G29   30.33R WCI -23

SOUTHERN SASKATCHEWAN


CITY           SKY/WX    TMP DP  RH WIND       PRES   REMARKS
REGINA         SUNNY    -15 -22  70 W6        30.32R
MOOSE JAW      SUNNY    -11 -20  64 W6        30.33S
ESTEVAN        SUNNY    -13 -22  64 NW13      30.33R WCI -34
SWIFT CURRENT  SUNNY     -6 -13  71 SW8       30.20R



USA.gov is the U.S. government's official web portal to all federal, state and local government web resources and services.